Voltar ao catálogo

STARLINK-32170

AtivoComunicaçõesVLEO
NORAD 60591·PAYLOAD·🇺🇸 United States

Lançado Aug 20, 2024 de Cape Canaveral Space Force Station

Loading…

Próximas Passagens (próximas 24 horas)

TLE

AtualizadoSource: CelesTrak SupGP

Época: Sep 14, 2026, 22:39 UTC

1 60591C 24150J   26257.94423611 -.00072855  00000+0 -21523-2 0  2575
2 60591  53.1576 147.3340 0001347  96.8078 347.9414 15.34430777    19

Acompanhe STARLINK-32170 em tempo real com AllMySat

Download on the App Store